sat.trackr.live / text

‹ back to catalog

STARLINK-3980

NORAD 52611 · 2022-052P

PAYLOAD ACTIVE UNKNOWN

§ Identity

Operator
Country
US
Launch date
2022-05-14
Launch site
AFETR
Launch vehicle
Mass (kg)
RCS (m²)

Purposes: comms

External: N2YO · Heavens-Above · Gunter

§ Orbital elements

Epoch: 2026-09-20T02:58:27.660000Z

Period
93.79 min
Inclination
53.1593°
Eccentricity
0.0001437
Mean motion
15.35392509 rev/d
Perigee alt
458.8 km
Apogee alt
460.7 km
Semi-major
6,837.9 km
B*
4.8765e-6
RAAN
118.3083°
Arg perigee
79.1173°
Mean anomaly
280.9992°
Rev number
24,031

§ Raw data

STARLINK-39801 52611U 22052P   26263.12393125 -.00000211  00000+0  48765-5 0  99902 52611  53.1593 118.3083 0001437  79.1173 280.9992 15.35392509240311

JSON: /api/v1/satellites/52611 · /tle

For live sub-satellite position, see the globe view (requires WebGL).

§ Visibility from observer

Set your observer location to see the next 7 days of passes ≥ 10°. The values pass through the URL so the page stays shareable.

No JS? Fill the form by hand. The geolocation button needs JavaScript.